Location: Newark
(9.4667°S, 159.8167°E)
Time: 05:34:37
(UTC+00:00)

Courier 1B Rocket - Pass Details

Date: 26 November 2019
Orbit: 920 x 1202 km, 28.2° (Epoch: 09 December)

Event Time Altitude Azimuth Distance (km) Brightness Sun altitude
Rises 19:32:45 0° 239° (WSW) 3,757 7.7 9.1°
Reaches altitude 10° 19:35:32 10° 237° (WSW) 2,763 7.1 9.7°
Maximum altitude 19:42:10 72° 153° (SSE) 997 5.5 11.3°
Drops below altitude 10° 19:48:27 10° 68° (ENE) 2,618 8.2 12.7°
Sets 19:51:01 0° 66° (ENE) 3,548 8.7 13.3°
